{"data":{"norad_id":55305,"epoch":"2026-09-20T05:20:04.327584Z","epoch_age_seconds":117387,"freshness":"FRESH","line1":"1 55305U 23010AN  26263.22227231  .00000038  00000+0  10993-4 0  9990","line2":"2 55305  69.9981 254.1536 0003567 271.2552  88.8198 14.98331886202415","mean_motion":14.98331886,"eccentricity":0.0003567,"inclination_deg":69.9981,"raan_deg":254.1536,"arg_perigee_deg":271.2552,"mean_anomaly_deg":88.8198,"bstar":1.0993e-5,"rev_number":20241,"period_min":96.106878152628,"perigee_km":569.57092692729,"apogee_km":574.52919037493,"semimajor_km":6950.1870586511,"source":"CELESTRAK","updated_at":"2026-09-21T09:00:33.172872Z"}}